Flag for Egypt Weather past 2 weeks in Alexandria, Egypt

Now
75 °F

Clear.


Feels Like: 77 °F
Forecast: 76 / 83 °F
Wind: 9 mph from Northwest

Location: Alexandria / Nouzha

Current Time: Jul 6, 2015 at 3:09:54 AM

Latest Report: Jul 6, 2015 at 2:00 AM


Visibility: 10 mi

Pressure: 29.89 "Hg

Humidity: 69%

Dew point: 64 °F

Location of AlexandriaLocation

Historic Weather in Alexandria — Graph

°F

Alexandria temperature yesterday

Maximum temperature yesterday: 84 °F (at 1:00 PM)
Minimum temperature yesterday: 73 °F (at 4:00 AM)
Average temperature yesterday: 78 °F

Past Weeks' High & Low Weather Summary

 TemperatureHumidityPressure
High97 °F (Jun 27, 11:00 AM)100% (Jun 26, 11:00 PM)30.01 "Hg (Jun 26, 11:00 PM)
Low36 °F (Jun 26, 11:00 PM)22% (Jun 27, 11:00 AM)29.59 "Hg (Jun 27, 11:00 AM)
Average78 °F63%29.88 "Hg
* Reported Jun 21 1:00 AM — Jul 6 1:00 AM, Alexandria, Weather by CustomWeather, © 2015

Note: Actual official high and low records may vary slightly from our data, if they occured in-between our weather recording intervals... More about our weather records

Advertising

Alexandria weather history for previous 24 hours

 ConditionsComfort  
Time TempWeatherWind HumidityBarometerVisibility
1:00 AM
Mon, Jul 6
75 °FPassing clouds.7 mph69%29.89 "HgN/A
12:00 AM75 °FPassing clouds.12 mph74%29.92 "HgN/A
11:00 PM
Sun, Jul 5
75 °FPassing clouds.13 mph74%29.92 "HgN/A
10:00 PM75 °FPassing clouds.9 mph74%29.92 "HgN/A
9:00 PM75 °FPassing clouds.10 mph78%29.92 "HgN/A
8:00 PM75 °FPassing clouds.12 mph78%29.92 "HgN/A
7:00 PM77 °FScattered clouds.13 mph69%29.89 "HgN/A
6:00 PM79 °FScattered clouds.14 mph65%29.89 "HgN/A
5:00 PM81 °FScattered clouds.13 mph62%29.89 "HgN/A
4:00 PM81 °FPassing clouds.15 mph66%29.89 "HgN/A
3:00 PM82 °FPassing clouds.16 mph62%29.86 "HgN/A
2:00 PM82 °FPassing clouds.17 mph62%29.92 "HgN/A
1:00 PM84 °FPassing clouds.15 mph55%29.92 "HgN/A
12:00 PM82 °FScattered clouds.15 mph58%29.95 "HgN/A
11:00 AM82 °FScattered clouds.10 mph58%29.92 "HgN/A
10:00 AM81 °FScattered clouds.12 mph62%29.92 "HgN/A
9:00 AM81 °FScattered clouds.10 mph62%29.89 "HgN/A
8:00 AM79 °FScattered clouds.8 mph65%29.89 "Hg6 mi
7:00 AM77 °FScattered clouds.12 mph69%29.89 "HgN/A
6:00 AM75 °FScattered clouds.8 mph74%29.89 "HgN/A
5:00 AM73 °FPassing clouds.7 mph74%29.89 "HgN/A
4:00 AM73 °FPassing clouds.6 mph78%29.89 "HgN/A
3:00 AM75 °FPassing clouds.8 mph74%29.89 "HgN/A
Weather by CustomWeather, © 2015

See weather overviewHow to use our weather pages